User: anonymous   Login
Location: Kitchener
(43.4500°N, 80.5000°W)
Time: 20:53:27
(UTC-04:00)
Language:

Cosmos 1939 Rocket - Orbit

View from above orbital plane
View from above orbital plane
View from above satellite
View from above satellite

Ground track
Ground track

The orbit data is extracted from the following two-line orbital elements,

1 19046U 88032B   16177.53819918  .00000265  00000-0  24505-4 0  9990
2 19046  97.5840 227.6368 0041162 106.8920 253.6824 15.01953359519106
Epoch (UTC): 25 June 2016 12:55:00
Eccentricity: 0.0041162
inclination: 97.5840°
perigee height: 532 km
apogee height: 589 km
right ascension of ascending node: 227.6368°
argument of perigee: 106.8920°
revolutions per day: 15.01953359
mean anomaly at epoch: 253.6824°
orbit number at epoch: 51910

The dashed part of the orbit path shows where the satellite is in the earth's shadow,  

DLR